TimeMST,TemperatureF,Dew PointF,Humidity,Sea Level PressureIn,VisibilityMPH,Wind Direction,Wind SpeedMPH,Gust SpeedMPH,PrecipitationIn,Events,Conditions,WindDirDegrees,DateUTC
12:53 AM,23.0,19.0,85,29.96,10.0,SSW,6.9,-,N/A,,Clear,210,2012-12-13 07:53:00
1:53 AM,21.0,18.0,88,29.97,10.0,South,4.6,-,N/A,,Clear,190,2012-12-13 08:53:00
2:53 AM,19.9,17.1,89,29.97,10.0,SW,3.5,-,N/A,,Clear,220,2012-12-13 09:53:00
3:53 AM,19.9,17.1,89,29.98,10.0,Calm,Calm,-,N/A,,Clear,0,2012-12-13 10:53:00
4:53 AM,19.0,16.0,88,29.99,10.0,Calm,Calm,-,N/A,,Clear,0,2012-12-13 11:53:00
5:53 AM,18.0,15.1,88,29.99,10.0,WSW,4.6,-,N/A,,Clear,240,2012-12-13 12:53:00
6:53 AM,15.1,12.9,91,30.00,10.0,Calm,Calm,-,N/A,,Clear,0,2012-12-13 13:53:00
7:53 AM,17.1,15.1,92,30.00,10.0,WNW,4.6,-,N/A,,Clear,290,2012-12-13 14:53:00
8:53 AM,19.0,16.0,88,29.99,10.0,Calm,Calm,-,N/A,,Clear,0,2012-12-13 15:53:00
9:13 AM,19.4,15.8,86,29.86,10.0,Calm,Calm,-,N/A,,Partly Cloudy,0,2012-12-13 16:13:00
9:53 AM,24.1,19.0,81,29.98,10.0,NNW,3.5,-,N/A,,Clear,330,2012-12-13 16:53:00
10:53 AM,28.0,21.9,78,29.97,10.0,Calm,Calm,-,N/A,,Clear,0,2012-12-13 17:53:00
11:53 AM,30.0,23.0,75,29.94,10.0,Calm,Calm,-,N/A,,Clear,0,2012-12-13 18:53:00
12:53 PM,34.0,25.0,70,29.91,10.0,Calm,Calm,-,N/A,,Clear,0,2012-12-13 19:53:00
1:53 PM,34.0,25.0,70,29.90,10.0,Variable,3.5,-,N/A,,Clear,0,2012-12-13 20:53:00
2:53 PM,34.0,26.1,73,29.91,10.0,NNW,6.9,-,N/A,,Clear,330,2012-12-13 21:53:00
5:53 PM,23.0,19.4,86,29.78,10.0,Calm,Calm,-,N/A,,Clear,0,2012-12-14 00:53:00
6:53 PM,21.9,19.0,89,29.94,10.0,Calm,Calm,-,N/A,,Clear,0,2012-12-14 01:53:00
7:53 PM,21.0,18.0,88,29.93,10.0,Calm,Calm,-,N/A,,Clear,0,2012-12-14 02:53:00
8:53 PM,19.0,16.0,88,29.92,10.0,Variable,3.5,-,N/A,,Clear,0,2012-12-14 03:53:00
9:53 PM,18.0,15.1,88,29.90,10.0,Variable,3.5,-,N/A,,Clear,0,2012-12-14 04:53:00
10:53 PM,19.4,15.8,86,29.75,10.0,Calm,Calm,-,N/A,,Clear,0,2012-12-14 05:53:00
11:53 PM,19.0,16.0,88,29.87,10.0,Calm,Calm,-,N/A,,Clear,0,2012-12-14 06:53:00